Flag for United Kingdom Weather past 2 weeks in St. Peter Port, Guernsey, United Kingdom

Now
55 °F

Passing clouds.


Feels Like: 51 °F
Forecast: 55 / 62 °F
Wind: 16 mph from West

Location: Guernsey Airport

Current Time: Oct 23, 2014 at 12:10:54 AM

Latest Report: Oct 22, 2014 at 8:50 PM


Visibility: N/A

Pressure: 30.33 "Hg

Humidity: 72%

Dew point: 46 °F

Location of St. Peter PortLocation

Historic Weather in St. Peter Port — Graph

°F

St. Peter Port temperature yesterday

Maximum temperature yesterday: 59 °F (at 1:50 PM)
Minimum temperature yesterday: 54 °F (at 3:50 AM)
Average temperature yesterday: 55 °F

Past Weeks' High & Low Weather Summary

 TemperatureHumidityPressure
High66 °F (Oct 18, 12:50 PM)100% (Oct 8, 5:20 AM)30.42 "Hg (Oct 8, 5:20 AM)
Low52 °F (Oct 14, 7:50 PM)58% (Oct 21, 8:50 PM)29.42 "Hg (Oct 8, 8:50 AM)
Average58 °F88%29.81 "Hg
* Reported Oct 7 8:20 PM — Oct 22 8:50 PM, St. Peter Port, Weather by CustomWeather, © 2014

Note: Actual official high and low records may vary slightly from our data, if they occured in-between our weather recording intervals... More about our weather records

Advertising

St. Peter Port weather history for previous 24 hours

 ConditionsComfort  
Time TempWeatherWind HumidityBarometerVisibility
8:50 PM
Oct 22
55 °FPassing clouds.16 mph72%30.33 "HgN/A
8:20 PM55 °FPassing clouds.14 mph72%30.33 "HgN/A
7:50 PM55 °FPassing clouds.15 mph72%30.33 "HgN/A
7:20 PM55 °FPassing clouds.15 mph72%30.33 "HgN/A
6:50 PM55 °FPartly sunny.15 mph72%30.33 "HgN/A
6:20 PM55 °FScattered clouds.16 mph77%30.33 "HgN/A
5:50 PM55 °FPartly sunny.17 mph77%30.33 "HgN/A
5:20 PM55 °FBroken clouds.16 mph77%30.36 "HgN/A
4:50 PM55 °FBroken clouds.15 mph77%30.36 "HgN/A
4:20 PM57 °FScattered clouds.16 mph72%30.36 "HgN/A
3:20 PM59 °FScattered clouds.16 mph68%30.36 "HgN/A
2:50 PM57 °FBroken clouds.13 mph72%30.39 "HgN/A
2:20 PM57 °FScattered clouds.15 mph67%30.39 "HgN/A
1:50 PM59 °FPassing clouds.15 mph68%30.39 "HgN/A
1:20 PM57 °FPassing clouds.16 mph72%30.39 "HgN/A
12:50 PM57 °FPartly sunny.15 mph72%30.39 "HgN/A
12:20 PM57 °FScattered clouds.13 mph67%30.39 "HgN/A
11:50 AM57 °FPassing clouds.14 mph67%30.42 "HgN/A
11:20 AM57 °FPassing clouds.12 mph72%30.42 "HgN/A
10:50 AM55 °FPartly sunny.13 mph72%30.42 "HgN/A
10:20 AM55 °FPartly sunny.13 mph72%30.42 "HgN/A
9:50 AM55 °FPartly sunny.15 mph67%30.42 "HgN/A
9:20 AM55 °FPartly sunny.13 mph67%30.42 "HgN/A
8:50 AM54 °FPartly sunny.13 mph72%30.39 "HgN/A
8:20 AM54 °FPassing clouds.14 mph72%30.39 "HgN/A
7:50 AM54 °FPassing clouds.15 mph67%30.39 "HgN/A
7:20 AM54 °FPassing clouds.14 mph67%30.39 "HgN/A
6:50 AM54 °FPassing clouds.12 mph67%30.39 "HgN/A
6:20 AM54 °FPartly cloudy.16 mph72%30.39 "HgN/A
5:50 AM54 °FPartly cloudy.12 mph72%30.39 "HgN/A
5:20 AM54 °FPassing clouds.13 mph72%30.36 "HgN/A
4:50 AM54 °FPassing clouds.15 mph67%30.36 "HgN/A
4:20 AM54 °FPassing clouds.17 mph67%30.36 "HgN/A
3:50 AM54 °FPassing clouds.17 mph63%30.36 "HgN/A
Weather by CustomWeather, © 2014

See weather overviewHow to use our weather pages